Wind_Speed
4 4 5 6 5 5 5 4 5 6 7 8 9 9 10 9 9 10 9 10 10 11 11 11 11 12 12 13 13 13 13 14 14 14 15 15 16 16 17 17 18 19 19 20 20 21 21 22 22
3 4 4 5 5 5 4 4 4 5 6 6 7 8 9 8 8 9 9 9 10 11 11 12 12 12 13 13 14 14 14 14 15 15 16 16 17 17 18 18 19 19 20 21 21 22 22 22 23
1 2 2 3 4 4 3 3 3 3 4 4 5 6 8 8 8 8 8 8 9 10 10 11 11 12 13 13 14 14 15 15 16 16 17 18 18 19 19 20 20 21 21 22 22 22 23 23 24
2 1 1 2 2 2 2 2 1 2 3 4 4 6 7 7 8 8 8 8 9 10 10 11 11 12 13 14 14 15 15 16 17 17 18 19 19 20 20 21 21 22 22 22 22 23 23 24 24
4 3 3 2 2 1 2 2 2 2 3 5 5 6 7 8 9 9 9 10 10 11 11 12 12 13 14 14 15 16 16 17 17 18 19 19 20 21 21 21 22 22 23 23 24 24 24 25 25
6 5 4 4 3 3 3 4 4 4 4 5 6 7 8 8 9 10 10 11 11 11 12 12 13 14 14 15 15 16 17 17 18 19 19 20 21 21 22 23 23 24 24 25 25 25 26 26 26
9 8 7 6 5 5 5 5 5 5 5 6 7 8 8 9 10 10 11 11 12 12 13 13 14 15 15 16 17 17 18 18 19 19 20 21 21 22 23 24 25 25 26 26 27 27 27 28 28
11 10 9 8 7 7 7 7 7 7 7 7 8 8 9 9 10 11 12 13 13 13 14 15 15 16 16 17 17 18 19 19 20 20 21 22 22 23 24 25 26 27 27 28 28 29 29 29 29
14 13 11 10 10 9 9 9 9 9 9 9 9 10 10 11 11 12 13 14 15 15 15 16 17 17 17 18 19 19 19 20 21 21 22 23 23 24 25 26 27 27 28 29 29 30 30 31 31
17 16 14 14 13 12 12 12 12 11 11 11 12 12 12 13 13 14 15 16 17 17 17 18 19 19 19 19 20 20 20 21 22 22 23 24 25 25 26 27 27 28 29 29 30 31 32 32 33
20 19 18 17 16 16 15 15 14 14 14 14 14 14 15 15 15 16 17 18 19 20 20 20 21 21 21 21 21 21 21 22 23 23 24 25 25 26 27 28 28 29 29 30 30 31 32 33 33
23 22 21 20 20 19 19 18 17 17 17 17 16 17 17 18 18 18 19 20 21 22 22 22 22 22 22 22 22 22 22 23 24 24 25 26 26 27 28 28 29 29 30 31 31 32 33 34 34
27 26 25 24 23 22 22 21 20 19 20 19 19 20 20 21 21 21 21 22 23 24 24 24 24 24 23 23 23 23 23 24 25 25 26 26 27 28 29 29 30 30 31 32 33 33 34 35 35
29 29 28 27 26 25 25 24 22 22 22 22 22 22 22 23 23 23 23 24 24 25 25 25 25 25 25 25 25 25 25 25 26 26 27 27 28 28 29 30 31 32 32 33 34 35 35 36 36
32 31 30 30 29 28 28 25 26 26 25 24 25 25 25 24 25 25 25 25 26 26 26 26 26 26 26 26 26 26 26 26 26 27 28 28 29 29 30 31 32 32 33 34 35 36 36 37 37
33 32 32 32 32 31 30 27 30 28 27 27 27 27 27 26 26 26 26 27 27 27 27 28 27 27 27 27 27 27 27 27 27 28 28 29 30 30 31 32 33 34 35 36 36 37 37 38 38
34 33 33 34 34 34 33 30 32 31 29 29 29 29 29 28 28 28 28 28 28 28 28 28 28 28 28 28 28 27 27 28 28 29 29 30 31 31 32 33 34 35 36 37 37 38 38 38 38
35 35 35 34 35 36 35 32 33 34 32 31 31 31 31 30 30 29 30 30 29 29 29 29 29 29 28 28 28 28 28 29 29 30 30 31 32 33 34 35 36 37 37 37 38 38 38 38 38
38 37 35 35 37 38 37 35 34 36 34 33 33 33 32 32 31 31 31 31 30 30 30 30 30 30 29 29 29 29 29 29 30 31 31 32 33 35 35 36 37 38 38 38 39 39 40 40 40
39 38 36 36 39 40 38 36 34 35 35 34 33 33 33 33 32 32 32 32 32 31 31 31 31 31 30 30 30 30 30 30 31 32 33 34 35 36 36 38 39 39 40 40 40 41 41 42 43
38 38 37 37 39 41 41 37 33 34 36 35 34 34 34 34 34 34 33 33 33 32 32 32 32 31 31 31 31 31 31 32 33 34 35 36 37 38 38 39 40 41 41 42 42 43 43 44 45
37 36 38 38 40 40 41 40 31 32 34 35 34 34 34 34 34 34 34 34 34 33 33 33 32 32 31 31 32 32 33 34 35 36 37 38 38 39 40 41 42 43 43 43 44 44 45 46 46
37 37 39 39 40 40 38 42 33 31 32 34 34 34 34 35 34 34 34 34 34 34 33 33 33 32 32 32 33 34 35 36 36 37 38 39 40 41 42 43 43 44 45 45 45 46 47 48 49
38 38 39 39 40 41 36 40 38 31 32 33 34 34 35 35 34 34 34 34 33 33 33 33 33 33 33 34 34 35 36 37 38 39 40 41 42 43 43 44 45 46 46 47 47 48 49 51 52
37 37 39 40 41 41 38 38 37 32 31 32 33 34 34 34 33 32 33 33 33 32 33 33 33 34 34 35 35 36 37 38 39 40 41 43 44 44 45 46 46 47 47 48 49 50 51 53 53
36 37 39 41 41 40 39 38 33 31 30 30 31 32 32 32 32 32 32 32 32 32 32 33 33 34 35 36 37 37 38 39 41 42 43 44 45 45 46 47 47 48 49 50 51 52 53 54 55
37 37 37 40 42 41 39 37 32 29 29 30 30 30 30 30 30 31 31 31 32 32 32 33 34 34 36 37 38 38 40 41 43 44 45 46 46 47 47 48 49 50 51 51 52 53 54 55 56
37 37 37 39 41 41 38 33 30 28 29 29 28 29 29 29 30 30 30 30 31 32 33 34 35 36 36 37 39 40 42 43 44 45 46 47 47 48 49 50 50 51 52 53 54 55 55 56 58
36 37 38 39 40 40 38 33 29 27 26 27 27 28 28 28 29 30 30 31 32 33 34 34 35 36 37 39 40 42 43 44 45 46 47 47 48 49 50 51 51 52 53 54 55 56 57 58 59
37 36 37 38 38 38 38 34 29 28 27 27 28 28 29 29 30 30 31 31 32 33 34 35 36 38 39 40 42 43 44 45 46 47 48 49 50 51 51 52 53 54 55 56 56 57 58 59 60
Wind_Direction
63 69 79 89 97 100 109 122 150 172 185 192 199 206 211 218 224 229 232 237 242 246 251 253 254 257 259 262 265 267 269 271 272 274 276 277 278 280 281 282 283 283 284 284 283 283 282 282 281
68 70 82 89 90 93 98 102 131 158 176 187 195 203 210 218 224 229 235 241 246 250 255 257 258 260 261 264 266 269 271 273 275 276 278 278 279 280 281 282 283 284 285 285 285 284 283 282 282
79 85 90 96 99 99 104 102 115 154 174 188 198 207 213 221 228 233 239 246 250 254 258 260 263 263 265 267 269 271 273 275 276 277 278 279 280 281 283 284 285 285 285 285 284 284 283 283 282
231 203 162 126 124 119 132 129 125 179 201 210 219 225 225 230 236 242 248 253 257 261 263 266 267 268 270 272 273 275 276 277 278 279 279 280 281 282 283 284 285 285 285 285 285 284 284 284 283
237 234 221 206 201 203 210 222 233 234 237 237 240 245 247 248 249 252 256 260 262 265 268 270 272 273 274 275 276 277 279 280 281 282 283 283 284 284 284 285 285 286 286 286 286 285 284 284 283
243 240 236 233 230 238 242 250 251 250 244 245 248 254 258 259 259 260 262 264 267 269 271 273 275 276 277 277 279 280 281 282 284 284 285 285 285 285 285 286 286 286 286 286 287 286 285 284 284
246 244 244 242 241 246 248 252 253 254 252 251 254 260 264 266 267 268 268 268 269 271 273 275 276 277 278 279 280 282 283 284 284 285 286 286 286 286 287 287 287 287 287 287 287 286 286 285 284
249 247 246 247 246 248 250 252 255 259 262 262 262 264 268 270 271 272 272 272 272 274 276 278 280 280 280 281 282 283 284 285 286 287 287 288 288 288 288 288 288 288 288 287 287 286 285 285 284
249 248 247 246 247 249 252 255 258 261 265 266 267 269 273 275 276 276 275 275 276 277 278 281 283 284 284 284 285 285 285 285 286 287 288 288 289 289 289 289 288 288 288 288 287 286 286 285 284
249 249 248 248 249 251 254 258 262 265 266 267 269 271 274 276 277 278 278 278 279 279 280 282 284 285 285 285 286 286 286 286 286 287 288 289 290 290 290 290 289 289 289 288 288 288 287 287 286
248 249 248 249 252 254 256 260 264 269 271 270 271 273 274 276 277 278 279 280 280 281 281 283 284 284 284 284 285 286 286 286 287 288 290 291 291 291 292 291 291 291 290 290 290 290 290 289 288
247 248 250 252 253 256 258 261 265 269 271 273 274 275 275 276 277 278 279 279 280 281 283 283 284 284 284 284 285 285 286 287 288 289 290 291 291 292 293 293 292 292 292 291 291 291 291 290 290
246 248 250 252 255 256 258 261 264 268 270 273 275 277 277 277 278 279 279 279 279 281 282 283 283 283 282 283 284 285 286 287 289 290 290 291 292 293 294 293 293 293 293 292 292 291 291 291 290
246 248 250 252 254 257 259 262 265 266 268 271 274 276 278 278 279 279 279 279 280 280 281 282 282 282 282 282 284 285 286 287 288 290 290 291 291 292 293 293 293 293 293 293 293 293 292 292 291
247 248 250 253 255 257 260 263 264 265 268 271 273 276 278 279 280 280 279 279 279 279 280 280 280 280 280 281 283 284 286 287 288 289 290 291 291 291 292 292 293 293 294 294 294 294 294 293 292
247 249 252 254 256 259 261 263 264 265 268 271 273 275 277 278 280 280 279 279 279 279 279 279 279 279 279 281 283 284 285 286 287 289 290 290 291 292 292 293 294 294 295 294 294 294 293 293 292
248 250 252 255 257 259 260 261 264 265 266 270 272 274 276 277 278 279 279 278 278 278 278 277 277 277 278 280 281 282 283 284 286 288 289 290 290 291 292 294 295 295 295 295 294 293 293 292 292
249 251 252 255 257 258 260 260 262 265 266 269 271 273 275 276 276 277 278 278 277 277 277 276 276 276 278 278 279 280 282 283 285 287 288 290 291 292 293 294 295 296 296 295 294 293 292 291 290
249 251 252 255 257 258 259 260 261 265 267 268 270 272 274 275 275 276 277 277 276 277 276 275 274 275 276 276 276 278 280 282 284 286 288 290 292 293 294 295 295 296 296 295 294 293 292 291 290
251 252 254 255 258 259 259 260 261 264 267 268 269 271 273 273 274 275 276 276 275 275 274 274 273 274 274 274 275 276 279 281 284 287 289 291 292 293 294 295 295 295 295 295 294 293 293 292 291
252 254 255 256 257 260 262 259 261 263 266 267 268 269 270 272 273 274 275 274 274 273 273 272 272 272 272 273 274 276 279 282 284 287 290 291 293 294 295 295 295 296 296 296 295 294 294 293 293
253 255 256 257 258 260 263 264 259 263 265 266 266 267 269 270 271 273 273 273 273 273 272 271 270 270 271 272 274 277 280 283 285 288 291 292 293 295 296 296 297 297 297 297 296 296 296 295 294
253 254 256 258 260 261 263 267 263 262 264 264 265 267 268 269 270 270 271 272 272 272 271 270 269 269 271 272 274 278 281 284 287 289 291 293 294 295 296 297 298 298 297 297 297 297 297 296 295
251 254 257 259 260 262 264 268 269 267 264 263 264 265 267 268 269 270 270 270 270 269 269 268 268 269 271 273 276 279 282 285 287 289 291 293 295 296 297 297 298 298 298 298 298 297 297 296 296
252 256 259 260 261 264 265 267 271 272 267 264 264 265 266 267 268 269 268 268 267 267 267 268 269 270 273 275 278 281 283 285 288 290 292 294 295 297 298 298 299 299 299 299 299 298 298 297 297
252 254 258 261 263 264 265 267 270 272 269 267 266 265 266 266 267 267 265 265 266 266 267 268 269 271 274 277 280 282 284 286 289 291 293 294 296 297 298 298 299 299 299 299 299 299 299 298 298
250 254 258 262 264 266 267 269 270 271 269 267 266 265 265 265 265 264 264 264 265 265 266 268 271 273 276 279 281 283 286 288 290 292 294 295 297 297 298 298 299 299 299 300 300 300 299 299 298
251 253 256 260 265 268 269 270 272 268 266 266 265 265 265 263 263 262 262 263 264 265 267 270 273 275 278 281 283 286 288 290 292 293 295 296 297 298 299 299 300 300 300 300 300 300 299 299 299
251 253 256 259 263 267 270 270 271 270 267 264 263 263 263 262 261 261 262 263 265 267 269 272 274 277 280 283 285 287 289 292 293 294 296 297 298 299 299 300 300 300 300 300 300 300 300 300 299
250 253 255 258 262 265 267 268 270 269 266 263 262 262 261 261 261 261 263 265 267 269 271 273 276 279 282 285 287 289 291 292 294 295 296 297 298 299 299 300 300 300 300 300 300 300 300 301 300
Height
5854 5854 5855 5856 5857 5857 5857 5857 5858 5859 5860 5861 5862 5863 5865 5867 5868 5871 5870 5869 5870 5870 5871 5871 5871 5871 5871 5872 5872 5871 5871 5871 5871 5871 5870 5870 5870 5869 5869 5868 5868 5867 5867 5866 5866 5865 5864 5864 5863
5855 5855 5856 5857 5857 5857 5858 5858 5858 5859 5860 5861 5862 5863 5864 5865 5866 5867 5867 5868 5868 5868 5869 5869 5869 5869 5869 5869 5869 5869 5869 5869 5868 5868 5868 5867 5867 5866 5866 5865 5864 5864 5863 5863 5862 5861 5861 5860 5860
5855 5856 5857 5857 5857 5858 5859 5859 5859 5860 5860 5861 5861 5862 5863 5864 5865 5865 5866 5866 5867 5867 5867 5867 5867 5867 5867 5867 5867 5867 5866 5866 5866 5865 5865 5864 5864 5863 5862 5862 5861 5860 5860 5859 5858 5858 5857 5857 5856
5856 5857 5858 5858 5857 5858 5858 5859 5859 5860 5860 5861 5861 5862 5862 5863 5863 5864 5864 5865 5865 5865 5865 5865 5865 5865 5865 5865 5864 5864 5863 5863 5862 5862 5861 5861 5860 5860 5859 5858 5858 5857 5856 5855 5855 5854 5853 5852 5852
5855 5856 5857 5857 5857 5858 5858 5859 5859 5860 5860 5860 5861 5861 5861 5862 5862 5862 5863 5863 5863 5863 5863 5863 5863 5863 5863 5862 5862 5861 5861 5860 5859 5859 5858 5857 5857 5856 5855 5855 5854 5853 5852 5851 5851 5850 5849 5848 5848
5855 5855 5857 5857 5857 5857 5858 5858 5859 5859 5860 5860 5860 5860 5860 5860 5860 5861 5861 5861 5861 5861 5861 5861 5861 5861 5860 5860 5859 5859 5858 5857 5856 5855 5855 5854 5853 5852 5851 5851 5850 5849 5848 5847 5847 5846 5845 5844 5843
5854 5854 5855 5856 5856 5856 5857 5857 5858 5859 5859 5859 5859 5859 5859 5859 5859 5859 5859 5859 5859 5859 5859 5859 5859 5858 5858 5857 5856 5855 5855 5854 5853 5852 5851 5850 5849 5848 5847 5846 5845 5845 5844 5843 5842 5841 5840 5839 5838
5851 5853 5853 5854 5854 5855 5855 5856 5857 5857 5858 5858 5858 5858 5858 5858 5857 5857 5857 5857 5857 5857 5857 5856 5856 5855 5854 5854 5853 5852 5851 5850 5849 5848 5847 5846 5845 5844 5843 5842 5841 5840 5839 5838 5837 5836 5835 5834 5833
5848 5851 5851 5852 5852 5853 5853 5854 5855 5855 5856 5856 5856 5856 5856 5856 5856 5855 5855 5855 5854 5854 5854 5853 5852 5852 5851 5850 5849 5848 5847 5846 5845 5844 5843 5842 5841 5839 5838 5837 5836 5835 5834 5832 5831 5830 5829 5828 5827
5845 5847 5848 5849 5850 5850 5851 5851 5852 5853 5854 5854 5854 5854 5854 5854 5853 5853 5852 5852 5851 5851 5850 5850 5849 5848 5847 5846 5845 5844 5843 5842 5841 5839 5838 5837 5836 5835 5833 5832 5831 5829 5828 5827 5826 5824 5823 5822 5821
5841 5843 5844 5845 5846 5847 5848 5848 5849 5850 5850 5851 5851 5851 5851 5851 5851 5850 5849 5848 5848 5847 5846 5846 5845 5844 5843 5842 5841 5840 5838 5837 5836 5835 5834 5832 5831 5830 5828 5827 5825 5824 5823 5821 5820 5818 5817 5816 5814
5837 5838 5840 5841 5842 5843 5844 5845 5846 5846 5847 5847 5847 5847 5847 5847 5847 5846 5846 5845 5844 5843 5842 5842 5841 5840 5839 5838 5836 5835 5834 5832 5831 5830 5829 5827 5826 5824 5823 5821 5820 5818 5817 5815 5814 5812 5810 5809 5807
5832 5833 5835 5836 5837 5838 5839 5840 5842 5843 5842 5843 5843 5843 5843 5843 5843 5842 5842 5841 5839 5838 5838 5837 5836 5835 5834 5833 5831 5830 5829 5828 5826 5825 5823 5822 5820 5818 5817 5815 5814 5812 5810 5809 5807 5805 5804 5802 5800
5826 5828 5829 5831 5832 5833 5835 5836 5837 5838 5838 5838 5838 5838 5838 5838 5838 5838 5837 5836 5835 5834 5833 5832 5831 5830 5829 5828 5826 5825 5824 5822 5821 5819 5818 5816 5814 5813 5811 5809 5807 5806 5804 5802 5800 5798 5797 5795 5793
5820 5822 5824 5825 5826 5828 5829 5832 5832 5832 5833 5833 5833 5833 5833 5833 5832 5832 5832 5831 5830 5829 5827 5826 5825 5824 5823 5822 5821 5819 5818 5817 5815 5814 5812 5810 5809 5807 5805 5803 5801 5799 5797 5795 5793 5791 5789 5787 5785
5814 5816 5818 5819 5820 5821 5825 5827 5825 5826 5827 5827 5828 5827 5827 5827 5827 5826 5826 5825 5824 5823 5822 5821 5820 5819 5817 5816 5815 5814 5812 5811 5809 5808 5806 5805 5803 5801 5799 5797 5795 5792 5790 5788 5786 5784 5781 5779 5777
5807 5810 5811 5813 5814 5814 5817 5820 5818 5819 5821 5821 5821 5821 5821 5821 5821 5820 5820 5819 5819 5817 5816 5815 5814 5813 5811 5810 5809 5808 5806 5805 5804 5802 5800 5799 5797 5795 5793 5790 5788 5785 5783 5781 5778 5776 5774 5771 5769
5800 5802 5804 5806 5806 5807 5809 5812 5812 5812 5814 5815 5815 5814 5814 5814 5814 5814 5813 5813 5812 5811 5810 5809 5808 5807 5805 5804 5803 5802 5801 5799 5798 5796 5794 5792 5790 5788 5786 5783 5781 5778 5775 5773 5770 5768 5765 5763 5761
5792 5794 5797 5799 5798 5799 5801 5804 5806 5805 5807 5808 5808 5808 5808 5807 5807 5807 5806 5806 5805 5804 5803 5802 5801 5800 5799 5798 5797 5796 5795 5793 5792 5790 5788 5786 5784 5781 5779 5776 5773 5770 5768 5765 5762 5760 5757 5754 5753
5784 5787 5790 5791 5790 5791 5793 5796 5799 5799 5799 5800 5801 5801 5800 5800 5800 5800 5800 5799 5799 5798 5797 5796 5795 5794 5793 5792 5791 5790 5788 5787 5785 5783 5781 5779 5777 5774 5771 5768 5766 5763 5760 5757 5754 5751 5748 5745 5742
5777 5780 5781 5782 5782 5782 5784 5788 5792 5793 5792 5793 5794 5793 5793 5793 5793 5793 5792 5792 5792 5791 5790 5789 5788 5787 5786 5785 5785 5783 5782 5780 5779 5777 5774 5772 5769 5766 5764 5760 5757 5754 5751 5748 5745 5741 5738 5735 5732
5770 5772 5772 5773 5774 5776 5777 5777 5787 5786 5785 5785 5785 5785 5786 5786 5786 5785 5785 5785 5784 5784 5783 5782 5781 5780 5780 5779 5778 5776 5775 5773 5771 5769 5766 5764 5761 5758 5755 5752 5749 5745 5742 5738 5735 5731 5728 5724 5721
5762 5763 5764 5765 5766 5768 5770 5768 5777 5779 5778 5778 5777 5778 5778 5778 5778 5778 5778 5778 5777 5777 5776 5775 5774 5774 5773 5772 5771 5769 5768 5766 5764 5761 5758 5756 5753 5750 5746 5743 5739 5736 5732 5728 5725 5721 5717 5713 5709
5754 5756 5757 5757 5758 5760 5764 5762 5765 5771 5771 5770 5770 5770 5770 5770 5770 5770 5770 5770 5770 5769 5769 5768 5767 5767 5766 5764 5763 5762 5760 5758 5756 5753 5750 5747 5744 5741 5737 5733 5729 5726 5722 5718 5714 5710 5706 5702 5697
5747 5749 5749 5749 5750 5753 5755 5755 5758 5761 5762 5762 5762 5762 5762 5762 5762 5762 5763 5762 5762 5762 5761 5761 5760 5759 5758 5757 5756 5754 5752 5750 5747 5745 5742 5738 5735 5731 5727 5723 5719 5715 5711 5707 5703 5699 5694 5690 5685
5740 5741 5742 5743 5743 5744 5746 5747 5753 5753 5753 5753 5753 5754 5754 5754 5754 5755 5755 5755 5755 5755 5754 5754 5753 5752 5751 5750 5748 5746 5744 5742 5739 5736 5733 5729 5725 5722 5718 5713 5709 5705 5700 5696 5692 5687 5682 5677 5672
5732 5733 5735 5735 5734 5735 5737 5741 5745 5746 5745 5745 5745 5746 5746 5746 5747 5747 5747 5748 5747 5747 5747 5746 5746 5745 5743 5742 5740 5738 5736 5733 5730 5727 5723 5719 5716 5712 5707 5703 5698 5694 5689 5684 5680 5675 5670 5664 5659
5724 5726 5727 5726 5726 5727 5730 5733 5737 5738 5737 5738 5738 5738 5738 5739 5739 5740 5740 5740 5740 5740 5739 5739 5738 5737 5735 5734 5732 5729 5727 5724 5720 5717 5713 5709 5705 5701 5696 5692 5687 5682 5677 5672 5667 5662 5657 5651 5645
5717 5718 5719 5720 5720 5720 5722 5728 5729 5730 5730 5730 5731 5731 5731 5732 5732 5732 5732 5733 5733 5732 5732 5731 5730 5728 5727 5725 5723 5720 5717 5714 5710 5707 5703 5698 5694 5690 5685 5680 5675 5670 5665 5660 5654 5649 5643 5637 5631
5708 5710 5712 5713 5713 5713 5714 5721 5722 5722 5722 5723 5723 5724 5724 5724 5725 5725 5725 5725 5725 5724 5724 5723 5721 5720 5718 5716 5713 5710 5707 5704 5700 5696 5692 5687 5683 5678 5673 5668 5663 5657 5652 5646 5641 5635 5630 5624 5617